Weather History for Sanford, ME

Change the Weather History Date:

Sunday, February 10, 2013

  Actual Average Record
Temperature  
Mean Temperature 13 °F -  
Max Temperature 35 °F 31 °F 46 °F (2001)
Min Temperature -9 °F 11 °F -9 °F (2013)
Degree Days  
Heating Degree Days 52    
Moisture  
Dew Point -2 °F    
Average Humidity 52    
Maximum Humidity 92    
Minimum Humidity 22    
Precipitation  
Precipitation 0.00 in - - ()
Sea Level Pressure  
Sea Level Pressure 30.28 in    
Wind  
Wind Speed 6 mph (WNW)    
Max Wind Speed 13 mph    
Max Gust Speed -    
Visibility 10 miles    
Events      
Averages and records for this station are not official NWS values.
T = Trace of Precipitation, MM = Missing Value Source: NWS Daily Summary

Daily Weather History Graph

Daily Weather History Graph

Search for Another Location

Airport:

Trip Planner

Search our weather history database for the weather conditions in past years. The results will help you decide how hot, cold, wet, or windy it might be!

Date:

Astronomy

Feb. 10, 2013 Rise Set
Actual Time 6:47 AM EST 5:07 PM EST
Civil Twilight 6:17 AM EST 5:36 PM EST
Nautical Twilight 5:44 AM EST 6:10 PM EST
Astronomical Twilight 5:11 AM EST 6:43 PM EST
Moon 6:33 AM EST (2/10) 5:57 PM EST (2/10)
Length of Visible Light 11h 18m
Length of Day
10h 19m
New Moon, 0% of the Moon is Illuminated
Feb 10
New Moon
Feb 17
First Quarter
Feb 25
Full
Mar 4
Last Quarter
Mar 11
New

Hourly Weather History & Observations

Time (EST) Temp. Windchill Dew Point Humidity Pressure Visibility Wind Dir Wind Speed Gust Speed Precip Events Conditions
12:15 AM 15.8 °F 2.1 °F 3.2 °F 58% 30.13 in 10.0 mi NW 12.7 mph - N/A   Clear
12:35 AM 15.8 °F 4.2 °F -0.4 °F 49% 30.13 in 10.0 mi NW 9.2 mph - N/A   Clear
12:55 AM 14.0 °F 0.5 °F 1.4 °F 57% 30.14 in 10.0 mi WNW 11.5 mph - N/A   Clear
1:15 AM 12.2 °F 0.7 °F 1.4 °F 62% 30.15 in 10.0 mi NW 8.1 mph - N/A   Clear
1:35 AM 12.2 °F -1.0 °F -0.4 °F 57% 30.16 in 10.0 mi WNW 10.4 mph - N/A   Clear
1:55 AM 12.2 °F 1.7 °F 1.4 °F 62% 30.17 in 10.0 mi WNW 6.9 mph - N/A   Clear
2:15 AM 12.2 °F 2.9 °F -0.4 °F 57% 30.17 in 10.0 mi WNW 5.8 mph - N/A   Clear
2:35 AM 10.4 °F - -2.2 °F 57% 30.18 in 10.0 mi Calm Calm - N/A   Clear
2:55 AM 10.4 °F 2.2 °F 1.4 °F 67% 30.18 in 10.0 mi WNW 4.6 mph - N/A   Clear
3:15 AM 3.2 °F -6.2 °F -14.8 °F 43% 30.18 in 10.0 mi WNW 4.6 mph - N/A   Clear
3:35 AM 1.4 °F -8.3 °F -5.8 °F 72% 30.19 in 10.0 mi NW 4.6 mph - N/A   Clear
3:55 AM 10.4 °F -0.4 °F 3.2 °F 73% 30.19 in 10.0 mi WNW 6.9 mph - N/A   Clear
4:15 AM 10.4 °F -0.4 °F -5.8 °F 48% 30.21 in 10.0 mi WNW 6.9 mph - N/A   Clear
4:55 AM -5.8 °F -18.4 °F -20.2 °F 50% 30.22 in 10.0 mi West 5.8 mph - N/A   Clear
5:15 AM 8.6 °F -2.6 °F 6.8 °F 92% 30.23 in 10.0 mi WNW 6.9 mph - N/A   Clear
5:35 AM -2.2 °F - -20.2 °F 42% 30.24 in 10.0 mi Calm Calm - N/A   Clear
5:55 AM -5.8 °F - -11.2 °F 77% 30.25 in 10.0 mi Calm Calm - N/A   Clear
6:15 AM -5.8 °F - -13.0 °F 71% 30.26 in 10.0 mi Calm Calm - N/A   Clear
6:35 AM -7.6 °F -18.8 °F -14.8 °F 71% 30.27 in 10.0 mi SW 4.6 mph - N/A   Clear
6:55 AM -9.4 °F -18.6 °F -16.6 °F 71% 30.27 in 10.0 mi West 3.5 mph - N/A   Clear
7:15 AM -7.6 °F - -9.4 °F 92% 30.28 in 10.0 mi Calm Calm - N/A   Clear
7:35 AM -5.8 °F -18.4 °F -7.6 °F 92% 30.29 in 10.0 mi WNW 5.8 mph - N/A   Clear
7:55 AM 3.2 °F -9.1 °F -2.2 °F 78% 30.30 in 10.0 mi West 6.9 mph - N/A   Clear
8:15 AM 6.8 °F -0.1 °F -20.2 °F 28% 30.30 in 10.0 mi West 3.5 mph - N/A   Clear
8:35 AM 10.4 °F 2.2 °F -0.4 °F 62% 30.31 in 10.0 mi WNW 4.6 mph - N/A   Clear
8:55 AM 17.6 °F - -2.2 °F 42% 30.32 in 10.0 mi Calm Calm - N/A   Unknown
9:15 AM 19.4 °F - -0.4 °F 42% 30.33 in 10.0 mi Calm Calm - N/A   Clear
9:35 AM 21.2 °F 10.9 °F -5.8 °F 30% 30.33 in 10.0 mi NW 9.2 mph - N/A   Clear
9:55 AM 21.2 °F 16.4 °F -2.2 °F 36% 30.34 in 10.0 mi NE 3.5 mph - N/A   Clear
10:15 AM 21.2 °F 14.9 °F -0.4 °F 39% 30.34 in 10.0 mi NW 4.6 mph - N/A   Clear
10:35 AM 26.6 °F 20.0 °F -2.2 °F 29% 30.34 in 10.0 mi West 5.8 mph - N/A   Clear
11:15 AM 28.4 °F 21.2 °F -0.4 °F 29% 30.34 in 10.0 mi West 6.9 mph - N/A   Clear
11:35 AM 32.0 °F 28.7 °F 1.4 °F 27% 30.34 in 10.0 mi WNW 3.5 mph - N/A   Clear
11:56 AM 28.4 °F 24.6 °F -2.2 °F 27% 30.34 in 10.0 mi WNW 3.5 mph - N/A   Clear
12:15 PM 30.2 °F 24.3 °F 3.2 °F 32% 30.33 in 10.0 mi NNW 5.8 mph - N/A   Clear
12:35 PM 33.8 °F 27.0 °F 1.4 °F 25% 30.33 in 10.0 mi NW 8.1 mph - N/A   Clear
1:15 PM 33.8 °F 26.4 °F -0.4 °F 23% 30.32 in 10.0 mi West 9.2 mph - N/A   Clear
1:35 PM 33.8 °F 29.6 °F -0.4 °F 23% 30.31 in 10.0 mi WNW 4.6 mph - N/A   Clear
1:55 PM 35.6 °F 29.9 °F 1.4 °F 24% 30.31 in 10.0 mi WNW 6.9 mph - N/A   Clear
2:15 PM 33.8 °F 27.7 °F 5.0 °F 30% 30.30 in 10.0 mi North 6.9 mph - N/A   Clear
2:35 PM 33.8 °F 28.6 °F -0.4 °F 23% 30.30 in 10.0 mi NW 5.8 mph - N/A   Clear
2:55 PM 33.8 °F 28.6 °F -0.4 °F 23% 30.30 in 10.0 mi NNW 5.8 mph - N/A   Clear
3:15 PM 33.8 °F 27.7 °F -0.4 °F 23% 30.30 in 10.0 mi NW 6.9 mph - N/A   Clear
3:35 PM 35.6 °F 30.7 °F -0.4 °F 22% 30.31 in 10.0 mi WNW 5.8 mph - N/A   Clear
3:55 PM 32.0 °F 27.5 °F -0.4 °F 25% 30.31 in 10.0 mi NW 4.6 mph - N/A   Clear
4:15 PM 32.0 °F - 1.4 °F 27% 30.32 in 10.0 mi Calm Calm - N/A   Clear
4:35 PM 33.8 °F 27.7 °F -0.4 °F 23% 30.33 in 10.0 mi West 6.9 mph - N/A   Clear
4:55 PM 33.8 °F 29.6 °F -0.4 °F 23% 30.32 in 10.0 mi West 4.6 mph - N/A   Clear
5:15 PM 28.4 °F - -0.4 °F 29% 30.32 in 10.0 mi Calm Calm - N/A   Clear
5:35 PM 24.8 °F - 1.4 °F 36% 30.32 in 10.0 mi Calm Calm - N/A   Clear
5:55 PM 19.4 °F - 3.2 °F 49% 30.33 in 10.0 mi Calm Calm - N/A   Clear
6:15 PM 15.8 °F - -0.4 °F 49% 30.34 in 10.0 mi Calm Calm - N/A   Clear
6:35 PM 17.6 °F - 1.4 °F 49% 30.33 in 10.0 mi Calm Calm - N/A   Clear
6:55 PM 15.8 °F - 1.4 °F 53% 30.32 in 10.0 mi Calm Calm - N/A   Clear
7:15 PM 14.0 °F - 1.4 °F 57% 30.32 in 10.0 mi Calm Calm - N/A   Clear
7:35 PM 10.4 °F 4.0 °F 3.2 °F 73% 30.32 in 10.0 mi SW 3.5 mph - N/A   Clear
7:55 PM 8.6 °F 2.0 °F 1.4 °F 73% 30.33 in 10.0 mi West 3.5 mph - N/A   Clear
8:15 PM 10.4 °F - 3.2 °F 73% 30.33 in 10.0 mi Calm Calm - N/A   Clear
8:35 PM 8.6 °F - -0.4 °F 67% 30.33 in 10.0 mi Calm Calm - N/A   Clear
8:55 PM 8.6 °F - 3.2 °F 79% 30.32 in 10.0 mi Calm Calm - N/A   Clear
9:15 PM 8.6 °F - -2.2 °F 62% 30.32 in 10.0 mi Calm Calm - N/A   Clear
9:35 PM 6.8 °F -2.0 °F -2.2 °F 67% 30.32 in 10.0 mi WSW 4.6 mph - N/A   Clear
9:55 PM 6.8 °F - 3.2 °F 85% 30.32 in 10.0 mi Calm Calm - N/A   Clear
10:15 PM 5.0 °F -5.6 °F -4.0 °F 66% 30.32 in 10.0 mi WSW 5.8 mph - N/A   Clear
10:35 PM 5.0 °F - -0.4 °F 78% 30.32 in 10.0 mi Calm Calm - N/A   Clear
10:55 PM 6.8 °F - -2.2 °F 67% 30.32 in 10.0 mi Calm Calm - N/A   Clear
11:15 PM 1.4 °F - -4.0 °F 78% 30.32 in 10.0 mi Calm Calm - N/A   Clear
11:35 PM 3.2 °F - -2.2 °F 78% 30.32 in 10.0 mi Calm Calm - N/A   Clear
11:55 PM 1.4 °F - -2.2 °F 85% 30.32 in 10.0 mi Calm Calm - N/A   Clear